Massena, NY

7:54 AM EDT on April 23, 2018 (GMT -0400)
Massena International-Richards

Weather History for KMSS - February, 2013

Change the Weather History Date:

Wednesday, February 13, 2013

  Actual Average Record
Temperature  
Mean Temperature 30 °F 17 °F  
Max Temperature 34 °F 28 °F 53 °F (1990)
Min Temperature 25 °F 7 °F -33 °F (1967)
Degree Days  
Heating Degree Days 35 48  
Month to date heating degree days 686 638  
Since 1 July heating degree days 4894 5301  
Cooling Degree Days 0 0  
Month to date cooling degree days 0  
Year to date cooling degree days 0  
Moisture  
Dew Point 25 °F    
Average Humidity 77    
Maximum Humidity 92    
Minimum Humidity 61    
Precipitation  
Precipitation T in 0.06 in 1.21 in (1971)
Month to date precipitation 0.07 0.77  
Year to date precipitation 1.51 2.95  
Sea Level Pressure  
Sea Level Pressure 29.83 in    
Wind  
Wind Speed 4 mph (SW)    
Max Wind Speed 12 mph    
Max Gust Speed 16 mph    
Visibility 9 miles    
Events Snow    
T = Trace of Precipitation, MM = Missing Value Source: NWS Daily Summary

Daily Weather History Graph

Daily Weather History Graph

Search for Another Location

Airport or City:

Astronomy

Feb. 13, 2013 Rise Set
Actual Time 7:02 AM EST 5:25 PM EST
Civil Twilight 6:32 AM EST 5:55 PM EST
Nautical Twilight 5:58 AM EST 6:29 PM EST
Astronomical Twilight 5:24 AM EST 7:03 PM EST
Moon 8:18 AM EST (2/13) 9:38 PM EST (2/13)
Length of Visible Light 11h 22m
Length of Day
10h 22m
Waxing Crescent, 13% of the Moon is Illuminated
Feb 13
Waxing Crescent
Feb 17
First Quarter
Feb 25
Full
Mar 4
Last Quarter
Mar 11
New

Hourly Weather History & Observations

Time (EST) Temp. Windchill Dew Point Humidity Pressure Visibility Wind Dir Wind Speed Gust Speed Precip Events Conditions
12:53 AM 30.0 °F 21.7 °F 25.0 °F 82% 29.86 in 8.0 mi WSW 9.2 mph - 0.00 in Snow Light Snow
1:53 AM 30.0 °F 23.2 °F 25.0 °F 82% 29.86 in 10.0 mi SW 6.9 mph - 0.00 in   Overcast
2:53 AM 30.9 °F 23.5 °F 25.0 °F 79% 29.86 in 10.0 mi SW 8.1 mph - N/A   Overcast
3:14 AM 30.2 °F 23.4 °F 24.8 °F 80% 29.84 in 10.0 mi SW 6.9 mph - 0.00 in Snow Light Snow
3:53 AM 30.9 °F 23.5 °F 24.1 °F 76% 29.86 in 9.0 mi SW 8.1 mph - 0.00 in Snow Light Snow
4:02 AM 30.2 °F 23.4 °F 24.8 °F 80% 29.84 in 9.0 mi SW 6.9 mph - 0.00 in   Overcast
4:27 AM 30.2 °F 23.4 °F 24.8 °F 80% 29.84 in 10.0 mi SW 6.9 mph - 0.00 in   Overcast
4:53 AM 30.0 °F 23.2 °F 24.1 °F 79% 29.86 in 9.0 mi SW 6.9 mph - 0.00 in Snow Light Snow
5:11 AM 30.2 °F 23.4 °F 24.8 °F 80% 29.85 in 8.0 mi SW 6.9 mph - 0.00 in Snow Light Snow
5:53 AM 30.0 °F 25.2 °F 25.0 °F 82% 29.86 in 7.0 mi SW 4.6 mph - 0.00 in Snow Light Snow
6:53 AM 28.9 °F 25.2 °F 25.0 °F 85% 29.86 in 8.0 mi SW 3.5 mph - 0.00 in Snow Light Snow
7:44 AM 28.4 °F 24.6 °F 26.6 °F 93% 29.85 in 6.0 mi SW 3.5 mph - 0.00 in Snow Light Snow
7:53 AM 28.9 °F 25.2 °F 26.1 °F 89% 29.87 in 6.0 mi SW 3.5 mph - 0.00 in Snow Light Snow
8:53 AM 30.0 °F 23.2 °F 26.1 °F 85% 29.87 in 9.0 mi SW 6.9 mph - 0.00 in Snow Light Snow
9:49 AM 30.2 °F 24.3 °F 26.6 °F 86% 29.85 in 10.0 mi SW 5.8 mph - 0.00 in   Overcast
9:53 AM 30.9 °F 24.3 °F 27.0 °F 85% 29.86 in 10.0 mi SW 6.9 mph - 0.00 in   Overcast
10:26 AM 30.2 °F 23.4 °F 26.6 °F 86% 29.84 in 4.0 mi SW 6.9 mph - 0.00 in Snow Light Snow
10:39 AM 30.2 °F 25.4 °F 26.6 °F 86% 29.83 in 2.5 mi SW 4.6 mph - 0.00 in Snow Light Snow
10:50 AM 30.2 °F 26.7 °F 28.4 °F 93% 29.83 in 4.0 mi SW 3.5 mph - 0.00 in Snow Light Snow
10:53 AM 30.9 °F 27.5 °F 28.0 °F 89% 29.85 in 6.0 mi SW 3.5 mph - 0.00 in Snow Light Snow
11:48 AM 32.0 °F 25.6 °F 24.8 °F 75% 29.82 in 9.0 mi WSW 6.9 mph - 0.00 in Snow Light Snow
11:53 AM 32.0 °F 26.4 °F 25.0 °F 75% 29.84 in 6.0 mi WSW 5.8 mph - 0.00 in Snow Light Snow
12:53 PM 32.0 °F 26.4 °F 27.0 °F 82% 29.82 in 9.0 mi SSW 5.8 mph - 0.00 in Snow Light Snow
1:53 PM 33.1 °F 30.0 °F 25.0 °F 72% 29.80 in 10.0 mi WSW 3.5 mph - 0.00 in   Overcast
2:13 PM 33.8 °F 30.8 °F 24.8 °F 70% 29.77 in 10.0 mi West 3.5 mph - N/A   Overcast
2:21 PM 33.8 °F - 24.8 °F 70% 29.77 in 10.0 mi Calm Calm - N/A   Overcast
2:35 PM 33.8 °F 27.7 °F 23.0 °F 65% 29.77 in 10.0 mi WSW 6.9 mph - N/A   Overcast
2:53 PM 34.0 °F 28.0 °F 21.9 °F 61% 29.79 in 10.0 mi SW 6.9 mph - N/A   Overcast
3:53 PM 33.1 °F 26.9 °F 23.0 °F 66% 29.79 in 10.0 mi SW 6.9 mph - N/A   Overcast
4:53 PM 32.0 °F 26.4 °F 23.0 °F 69% 29.78 in 10.0 mi SW 5.8 mph - N/A   Overcast
5:53 PM 32.0 °F - 23.0 °F 69% 29.78 in 10.0 mi Calm Calm - N/A   Overcast
6:53 PM 32.0 °F - 23.0 °F 69% 29.79 in 10.0 mi Calm Calm - N/A   Overcast
7:53 PM 28.9 °F - 21.0 °F 72% 29.78 in 10.0 mi Calm Calm - N/A   Overcast
8:53 PM 27.0 °F - 21.9 °F 81% 29.80 in 10.0 mi Calm Calm - N/A   Overcast
9:53 PM 27.0 °F - 21.0 °F 78% 29.80 in 10.0 mi Calm Calm - N/A   Overcast
10:53 PM 26.1 °F - 21.0 °F 81% 29.80 in 10.0 mi Calm Calm - N/A   Overcast
11:53 PM 28.0 °F - 21.9 °F 78% 29.80 in 10.0 mi Calm Calm - N/A   Overcast